User: anonymous   Login
Location: Unspecified
(0.0000°N, 0.0000°E)
Time: 12:41:33
(UTC+00:00)
Language:

STSS ATRR (USA 205) - Orbit

View from above orbital plane
View from above orbital plane
View from above satellite
View from above satellite

Ground track
Ground track

The orbit data is extracted from the following two-line orbital elements,

1 34903U 09023A   20262.86203382 0.00000000  00000-0  00000-0 0    00
2 34903  98.9258 358.7550 0004299 126.7791 233.2208 14.06317440    02
Epoch (UTC): 18 September 2020 20:41:19
Eccentricity: 0.0004299
inclination: 98.9258°
perigee height: 869 km
apogee height: 875 km
right ascension of ascending node: 358.7550°
argument of perigee: 126.7791°
revolutions per day: 14.06317440
mean anomaly at epoch: 233.2208°
orbit number at epoch: 0

The dashed part of the orbit path shows where the satellite is in the earth's shadow,  

DLR